User: anonymous   Login
Location: Unspecified
(0.0000°N, 0.0000°E)
Time: 19:55:00
(UTC+00:00)
Language:

Himawari 2 - Orbit

View from above orbital plane
View from above orbital plane
View from above satellite
View from above satellite

Ground track
Ground track

The orbit data is extracted from the following two-line orbital elements,

1 12677U 81076A   18349.57353686 +.00000097 +00000-0 +00000-0 0  9999
2 12677 013.3764 329.7065 0011592 274.3973 267.7884 00.99550806104946
Epoch (UTC): 15 December 2018 13:45:53
Eccentricity: 0.0011592
inclination: 13.3764°
perigee height: 35940 km
apogee height: 36038 km
right ascension of ascending node: 329.7065°
argument of perigee: 274.3973°
revolutions per day: 0.99550806
mean anomaly at epoch: 267.7884°
orbit number at epoch: 10494

The dashed part of the orbit path shows where the satellite is in the earth's shadow,  

DLR